Tracking 19242 objects as of 17-Aug-2018
HD Live streaming from Space Station
objects crossing your sky now

FENGYUN 1C DEB

Track FENGYUN 1C DEB now!
10-day predictions


NORAD ID: 29758
Int'l Code: 1999-025AY
Perigee: 819.6 km
Apogee: 867.3 km
Inclination: 98.9 °
Period: 101.6 minutes
Semi major axis: 7214 km
RCS: 0.0129 m2 (small)
Launch date: May 10, 1999
Source: People's Republic of China (PRC)
Launch site: Taiyaun Space Center, China (TSC)

Note: This is SATELLITE DEBRIS
aabbcc
Your satellite tracking list
Your tracking list is empty




NASA's NSSDC Master Catalog

Two Line Element Set (TLE):
1 29758U 99025AY  18228.11696875  .00000730  00000-0  38531-3 0  9993
2 29758  98.9354 286.2648 0033078 101.4612 327.4049 14.16757099596517
Source of the keplerian elements: AFSPC